Tracking 19720 objects as of 26-Jun-2019
HD Live streaming from Space Station
objects crossing your sky now

DELTA 1 DEB

Track DELTA 1 DEB now!
10-day predictions


NORAD ID: 12825
Int'l Code: 1978-026EW
Perigee: 877.9 km
Apogee: 967.0 km
Inclination: 99.4 °
Period: 103.3 minutes
Semi major axis: 7293 km
RCS: 0.046 m2 (small)
Launch date: March 5, 1978
Source: United States (US)
Launch site: AIR FORCE WESTERN TEST RANGE (AFWTR)

Note: This is SATELLITE DEBRIS
aabbcc
Your satellite tracking list
Your tracking list is empty




NASA's NSSDC Master Catalog

Two Line Element Set (TLE):
1 12825U 78026EW  19175.35635407 -.00000047  00000-0 -35327-6 0  9996
2 12825  99.3760 317.4693 0061046 180.9346 232.7021 13.93814234949787
Source of the keplerian elements: AFSPC